Regional Weather Roundup
Issued by NWS

Home | Current Version | Previous Version | Graphics & Text | Print | Product List | Glossary On
Versions: 1 2 3 4 5 6 7 8 9 10 11 12 13 14 15 16 17 18 19 20 21 22 23 24 25 26 27 28 29 30 31 32 33 34 35 36 37 38 39 40 41 42 43 44 45 46 47 48 49 50
000
ASUS43 KMPX 271810
RWRMN
WEATHER ROUNDUP FOR MINNESOTA
NATIONAL WEATHER SERVICE TWIN CITIES/CHANHASSEN MN
1200 PM CST SAT DEC 27 2014


NOTE: "FAIR" INDICATES FEW OR NO CLOUDS BELOW 12,000 FEET WITH NO
SIGNIFICANT WEATHER AND/OR OBSTRUCTIONS TO VISIBILITY. N/A MEANS
CURRENT SKY AND/OR WEATHER CONDITIONS ARE NOT AVAILABLE.

MNZ060>063-068>070-271900-
   Twin Cities Metro

CITY           SKY/WX    TMP DP  RH WIND       PRES   REMARKS
TWIN CITIES    CLOUDY    23  16  74 NW14      30.08F WCI  11
6HR MIN TEMP:  22; 6HR MAX TEMP:  24; 6HR PCP:  0.04;

ST PAUL        CLOUDY    24  17  74 NW15      30.09F WCI  11
CRYSTAL        PTSUNNY   25  16  68 W15       30.07F WCI  13
LAKEVILLE      CLOUDY    23  18  80 W13       30.08S WCI  11
EDEN PRAIRIE   PTSUNNY   24  15  68 NW10      30.07F WCI  14
6HR MIN TEMP:  22; 6HR MAX TEMP:  25; 6HR PCP: TRACE;

SOUTH ST PAUL  CLOUDY    25  19  77 W14G20    30.08S WCI  13
LAKE ELMO      CLOUDY    25  19  80 NW9       30.07S WCI  15
$$
MNZ001>005-007-008-013>017-022>024-027-028-271900-
   Northwest Minnesota

CITY           SKY/WX    TMP DP  RH WIND       PRES   REMARKS
BEMIDJI        CLOUDY    14   5  67 W8        30.01F WCI   3
HALLOCK        FLURRIES  10   7  85 S8        30.03F WCI  -1
ROSEAU         LGT SNOW  12   7  79 SW9       30.01F WCI   0
WARROAD        CLOUDY    10   5  79 SW6       30.00F WCI   1
THIEF RVR FALL CLOUDY    10   7  85 S10       30.02F WCI  -3
CROOKSTON      LGT SNOW  10   9  92 SW13      30.06F WCI  -5
FOSSTON        FLURRIES   9   7  92 S12       30.04F WCI  -6
DETROIT LAKES  FAIR      12  12 100 S5        30.05F WCI   4
MOORHEAD       CLOUDY    16  12  86 SW10      30.09F WCI   3
PARK RAPIDS    CLOUDY    17   3  54 NW7       30.02F WCI   8
MAHNOMEN       CLOUDY    10   8  89 S8        30.04F WCI  -1
$$
MNZ006-009>011-018-025>026-271900-
   North Central Minnesota

CITY           SKY/WX    TMP DP  RH WIND       PRES   REMARKS
BAUDETTE       CLOUDY    11   5  77 S8        29.99F WCI  -1
FLAG ISLAND    CLOUDY     9   5  85 S12       29.98F WCI  -6
INTL FALLS     PTSUNNY   14   6  70 W6        29.99F WCI   5
6HR MIN TEMP:   9; 6HR MAX TEMP:  15; 6HR PCP: TRACE;

WASKISH        CLOUDY    12   9  85 SW8       30.01F WCI   1
BIG FORK       SUNNY     18   9  68 SW6       29.99F WCI   9
LONGVILLE      SUNNY     19   9  63 SW5       30.02F WCI  13
GRAND RAPIDS   SUNNY     16   9  73 W6        30.00F WCI   7
CRANE LAKE     SUNNY     10   5  79 NW6       30.02F WCI   1
ORR            SUNNY     14   5  67 CALM      29.96F
COOK           SUNNY     16   7  67 W7        29.98F WCI   6
WALKER         CLOUDY    17   4  57 W8        30.02F WCI   6
$$
MNZ012-019>021-037-271900-
   Northeast Minnesota

CITY           SKY/WX    TMP DP  RH WIND       PRES   REMARKS
DULUTH         MOSUNNY   20   9  62 W13       29.95F WCI   7
6HR MIN TEMP:  17; 6HR MAX TEMP:  20;

ELY            FLURRIES  14   7  73 NW6       29.95F WCI   5
HIBBING        SUNNY     18   7  62 W8        29.99F WCI   8
EVELETH        SUNNY     18  10  73 W8        29.98F WCI   7
DULUTH HARBOR  SUNNY     23  12  63 W10       30.02F WCI  12
TWO HARBORS    MOSUNNY   25  14  63 NW6       29.94F WCI  18
SILVER BAY     MOSUNNY   25  12  58 W7        29.93F WCI  17
GRAND MARAIS     N/A     22  13  68 NW8G21    29.95F WCI  12
G MARAIS ARPRT LGT SNOW  14   9  79 NW9       29.88F WCI   2
$$
MNZ029>031-032-039>041-046>048-054>057-064-271900-
   West Central Minnesota

CITY           SKY/WX    TMP DP  RH WIND       PRES   REMARKS
FERGUS FALLS   MOSUNNY   14   7  73 W6        30.12F WCI   5
WHEATON        SUNNY     18  10  73 SW6       30.13F WCI   9
MORRIS         SUNNY     18   9  68 SW7       30.11F WCI   8
ALEXANDRIA     SUNNY     16   6  65 W10       30.07F WCI   4
ELBOW LAKE     FAIR      14   8  76 W7        30.09F WCI   4
WADENA         SUNNY     16   7  67 NW9       30.05F WCI   4
GLENWOOD       SUNNY     16   7  67 W9        30.09S WCI   4
APPLETON       SUNNY     18   7  62 W8        30.14F WCI   7
BENSON         SUNNY     16   7  67 NW6       30.12F WCI   7
ORTONVILLE     SUNNY     16   7  67 SW5       30.13F WCI   9
MADISON        SUNNY     18  10  73 W6        30.15F WCI   9
WILLMAR        FAIR      16   7  67 W7        30.13F WCI   6
$$
MNZ033>034-036-042>043-049>051-058-059-271900-
   Central Minnesota

CITY           SKY/WX    TMP DP  RH WIND       PRES   REMARKS
ST CLOUD       SUNNY     24  11  57 W9        30.07F WCI  14
6HR MIN TEMP:  23; 6HR MAX TEMP:  25; 6HR PCP: TRACE;

SAUK CENTRE    FAIR      15   4  60 W8        30.08F WCI   5
PAYNESVILLE    SUNNY     15   5  63 W8        30.10F WCI   4
AITKIN         SUNNY     25  10  54 CALM      30.01F
PINE RIVER     SUNNY     18   9  68 W5        30.05F WCI  11
BRAINERD       SUNNY     20   8  60 W9        30.04F WCI   9
STAPLES        SUNNY     16   7  67 W6        30.05F WCI   7
LONG PRAIRIE   FAIR      18   5  57 W7        30.06F WCI   8
LITTLE FALLS   SUNNY     21  10  63 W9        30.07S WCI  11
LITCHFIELD     SUNNY     19  12  73 W8        30.11S WCI   9
BUFFALO        SUNNY     24  15  70 W9        30.10S WCI  14
MAPLE LAKE     SUNNY     24  17  75 W5        30.09S WCI  18
$$
MNZ037-044-045-052-053-271900-
   East Central Minnesota

CITY           SKY/WX    TMP DP  RH WIND       PRES   REMARKS
PRINCETON      SUNNY     25  16  68 W8        30.06F WCI  16
MORA           SUNNY     25  14  63 NW9       30.06F WCI  15
CAMBRIDGE      SUNNY     25  14  63 W8        30.04F WCI  16
RUSH CITY      MOSUNNY   24  15  68 NW10      30.05F WCI  13
MOOSE LAKE     SUNNY     23  12  63 W9        30.00F WCI  13
HINCKLEY       FAIR      25  18  74 CALM      30.03F
CLOQUET        SUNNY     19  10  68 W13       29.98F WCI   7
MCGREGOR       SUNNY     21  14  73 W7        30.02F WCI  13
$$
MNZ071>073-080-081-089-090-097-098-271900-
   Southwest Minnesota

CITY           SKY/WX    TMP DP  RH WIND       PRES   REMARKS
MONTEVIDEO     SUNNY     18  16  93 NW8       30.16S WCI   7
GRANITE FALLS  SUNNY     14   7  73 W8        30.17F WCI   3
CANBY          SUNNY     18   9  68 W9        30.16S WCI   6
MARSHALL       SUNNY     16   5  62 W7        30.16F WCI   6
REDWOOD FALLS  SUNNY     14   6  70 W15       30.16F WCI  -1
OLIVIA         SUNNY     16  10  79 NW10      30.14S WCI   3
PIPESTONE        N/A     12   9  85 W8        30.14F WCI   1
WINDOM         SUNNY     16  10  79 W12       30.15S WCI   3
WORTHINGTON    SUNNY     18 -27  12 W14       30.16S WCI   4
JACKSON        SUNNY     19  10  68 W14       30.14F WCI   6
TRACY          SUNNY     18  11  74 W5        30.15F WCI  11
SLAYTON        SUNNY     14   9  81 W12       30.15F WCI   0
$$
MNZ065>067-074>077-082>085-091>093-271900-
   South Central Minnesota

CITY           SKY/WX    TMP DP  RH WIND       PRES   REMARKS
MANKATO        CLOUDY    19  12  73 NW14      30.12S WCI   6
NEW ULM        SUNNY     12   7  79 W16       30.15S WCI  -4
ST JAMES       SUNNY     16   9  73 W14       30.17S WCI   1
FAIRMONT       SUNNY     18   7  62 W15       30.14S WCI   3
GLENCOE        SUNNY     20  15  81 W12       30.10F WCI   8
FARIBAULT      CLOUDY    25  19  80 W16       30.09S WCI  12
OWATONNA       SUNNY     21  18  86 W18       30.09R WCI   6
WASECA         CLOUDY    21  18  86 W14       30.12R WCI   8
ALBERT LEA     CLOUDY    21  18  86 W10       30.10S WCI  10
$$
MNZ078>079-086>088-094>096-271900-
   Southeast Minnesota

CITY           SKY/WX    TMP DP  RH WIND       PRES   REMARKS
ROCHESTER      CLOUDY    22  19  89 NW20      30.05R WCI   7
6HR MIN TEMP:  22; 6HR MAX TEMP:  27; 6HR PCP: TRACE;

RED WING       CLOUDY    27  19  74 NW10G16   30.06S WCI  17
STANTON        CLOUDY    25  19  76 W13       30.07S WCI  14
DODGE CENTER   CLOUDY    21  19  93 NW10      30.06S WCI  10
WINONA         CLOUDY    30  27  86 NW13      30.03F WCI  20
AUSTIN         CLOUDY    23  18  80 NW15      30.08R WCI  10
PRESTON        CLOUDY    23  20  89 NW15      30.04S WCI  10
$$
ABBREVIATIONS USED IN REMARKS
   TC - TEMPERATURES IN CELSIUS
  WCI - WIND CHILL INDEX
   HX - HEAT INDEX
  VSB - VISIBILITY
$$



USA.gov is the U.S. government's official web portal to all federal, state and local government web resources and services.